Weather History for PASI - January, 2014

Change the Weather History Date:

Friday, January 31, 2014

  Actual Average Record
Temperature  
Mean Temperature 32 °F -  
Max Temperature 37 °F 38 °F 52 °F (1998)
Min Temperature 28 °F 30 °F 4 °F (1989)
Degree Days  
Heating Degree Days 32    
Moisture  
Dew Point 30 °F    
Average Humidity 89    
Maximum Humidity 96    
Minimum Humidity 82    
Precipitation  
Precipitation 0.00 in - - ()
Sea Level Pressure  
Sea Level Pressure 30.12 in    
Wind  
Wind Speed 3 mph (East)    
Max Wind Speed 9 mph    
Max Gust Speed -    
Visibility 10 miles    
Events Rain    
Averages and records for this station are not official NWS values.
T = Trace of Precipitation, MM = Missing Value Source: NWS Daily Summary

Daily Weather History Graph

Daily Weather History Graph

Search for Another Location

Airport or City:

Trip Planner

Search our weather history database for the weather conditions in past years. The results will help you decide how hot, cold, wet, or windy it might be!

Date:

Astronomy

Jan. 31, 2014 Rise Set
Actual Time 8:02 AM AKST 4:28 PM AKST
Civil Twilight 7:19 AM AKST 5:11 PM AKST
Nautical Twilight 6:33 AM AKST 5:57 PM AKST
Astronomical Twilight 5:48 AM AKST 6:42 PM AKST
Moon 7:54 AM AKST (1/31) 6:30 PM AKST (1/31)
Length of Visible Light 9h 51m
Length of Day
8h 26m
New Moon, 1% of the Moon is Illuminated
Jan 31
New Moon
Feb 6
First Quarter
Feb 14
Full
Feb 22
Last Quarter
Feb 28
New

Hourly Weather History & Observations

Time (AKST) Temp. Windchill Dew Point Humidity Pressure Visibility Wind Dir Wind Speed Gust Speed Precip Events Conditions
12:53 AM 30.9 °F - 28.9 °F 92% 30.09 in 10.0 mi Calm Calm - N/A   Clear
1:53 AM 30.0 °F - 28.0 °F 92% 30.10 in 10.0 mi Calm Calm - N/A   Clear
3:39 AM 30.0 °F - 28.9 °F 96% 30.09 in 10.0 mi Calm Calm - N/A   Partly Cloudy
3:53 AM 28.9 °F 25.2 °F 28.0 °F 96% 30.09 in 10.0 mi East 3.5 mph - N/A   Partly Cloudy
4:53 AM 30.0 °F - 28.0 °F 92% 30.09 in 10.0 mi Calm Calm - N/A   Clear
5:53 AM 28.9 °F - 28.0 °F 96% 30.10 in 10.0 mi Calm Calm - N/A   Clear
6:16 AM 30.0 °F 25.2 °F 28.0 °F 92% 30.10 in 10.0 mi North 4.6 mph - N/A   Scattered Clouds
6:27 AM 32.0 °F 24.2 °F 30.0 °F 92% 30.10 in 10.0 mi NNW 9.2 mph - N/A   Mostly Cloudy
6:53 AM 32.0 °F 27.5 °F 30.0 °F 92% 30.10 in 10.0 mi North 4.6 mph - N/A   Mostly Cloudy
7:53 AM 30.0 °F 25.2 °F 28.0 °F 92% 30.12 in 10.0 mi East 4.6 mph - N/A   Mostly Cloudy
8:53 AM 32.0 °F 27.5 °F 30.0 °F 92% 30.12 in 10.0 mi East 4.6 mph - N/A   Mostly Cloudy
9:53 AM 32.0 °F 28.7 °F 30.9 °F 96% 30.13 in 10.0 mi East 3.5 mph - N/A   Overcast
10:53 AM 33.1 °F 26.9 °F 30.9 °F 92% 30.13 in 10.0 mi East 6.9 mph - N/A   Overcast
11:13 AM 33.1 °F 26.1 °F 30.9 °F 92% 30.14 in 10.0 mi East 8.1 mph - N/A   Overcast
11:53 AM 33.1 °F 26.9 °F 30.9 °F 92% 30.14 in 10.0 mi ESE 6.9 mph - N/A   Overcast
12:18 PM 34.0 °F 28.0 °F 30.9 °F 89% 30.14 in 10.0 mi ESE 6.9 mph - N/A   Overcast
12:53 PM 34.0 °F 29.8 °F 30.9 °F 89% 30.14 in 10.0 mi ESE 4.6 mph - N/A   Mostly Cloudy
1:53 PM 35.1 °F 29.3 °F 32.0 °F 89% 30.13 in 10.0 mi ESE 6.9 mph - N/A   Mostly Cloudy
2:53 PM 36.0 °F 30.3 °F 32.0 °F 86% 30.13 in 10.0 mi ESE 6.9 mph - N/A   Mostly Cloudy
3:53 PM 36.0 °F 30.3 °F 32.0 °F 86% 30.13 in 10.0 mi ESE 6.9 mph - N/A   Mostly Cloudy
4:53 PM 37.0 °F 31.6 °F 32.0 °F 82% 30.13 in 10.0 mi ESE 6.9 mph - N/A   Overcast
5:53 PM 36.0 °F 30.3 °F 30.9 °F 82% 30.13 in 10.0 mi East 6.9 mph - N/A   Overcast
6:53 PM 36.0 °F 32.1 °F 30.9 °F 82% 30.13 in 10.0 mi ESE 4.6 mph - N/A   Overcast
7:10 PM 36.0 °F 31.1 °F 30.9 °F 82% 30.13 in 10.0 mi SE 5.8 mph - 0.00 in Rain Light Rain
7:53 PM 35.1 °F 30.1 °F 30.0 °F 82% 30.13 in 10.0 mi ESE 5.8 mph - 0.00 in   Overcast
8:53 PM 35.1 °F - 30.0 °F 82% 30.14 in 10.0 mi Calm Calm - N/A   Overcast
9:53 PM 33.1 °F 30.0 °F 30.0 °F 89% 30.14 in 10.0 mi ESE 3.5 mph - N/A   Overcast
10:53 PM 35.1 °F - 32.0 °F 89% 30.16 in 10.0 mi Calm Calm - N/A   Overcast
11:22 PM 34.0 °F - 30.9 °F 89% 30.16 in 10.0 mi Calm Calm - N/A   Overcast
11:53 PM 33.1 °F 28.7 °F 30.0 °F 89% 30.16 in 10.0 mi East 4.6 mph - N/A   Scattered Clouds